Terminal Aerodrome Forecast
Issued by NWS

Home | Current Version | Previous Version | Graphics & Text | Print | Product List | Glossary Off
Versions: 1 2 3 4 5 6 7 8 9 10 11 12 13 14 15 16 17 18 19 20 21 22 23 24 25 26 27 28 29 30 31 32 33 34

931
FTUS43 KDDC 111841 AAA
TAFHYS
TAF AMD
KHYS 111841Z 1119/1218 21005KT P6SM SCT200
     FM120000 31006KT P6SM BKN250
     FM121400 01006KT 4SM BR OVC004=

USA.gov is the U.S. government's official web portal to all federal, state and local government web resources and services.